Sussex, NJ

6:48 PM EDT on March 28, 2017 (GMT -0400)
Sussex

Weather History for KFWN - April, 2013

Change the Weather History Date:

Saturday, April 6, 2013

  Actual Average Record
Temperature  
Mean Temperature 40 °F -  
Max Temperature 52 °F 54 °F 80 °F (1985)
Min Temperature 30 °F 32 °F 18 °F (2016)
Degree Days  
Heating Degree Days 24    
Moisture  
Dew Point 12 °F    
Average Humidity 35    
Maximum Humidity 66    
Minimum Humidity 14    
Precipitation  
Precipitation 0.00 in - - ()
Sea Level Pressure  
Sea Level Pressure 30.22 in    
Wind  
Wind Speed 4 mph (NNW)    
Max Wind Speed 14 mph    
Max Gust Speed 18 mph    
Visibility 10 miles    
Events Rain    
Averages and records for this station are not official NWS values.
T = Trace of Precipitation, MM = Missing Value Source: NWS Daily Summary

Daily Weather History Graph

Daily Weather History Graph

Search for Another Location

Airport or City:

Trip Planner

Search our weather history database for the weather conditions in past years. The results will help you decide how hot, cold, wet, or windy it might be!

Date:

Astronomy

Apr. 06, 2013 Rise Set
Actual Time 6:33 AM EDT 7:29 PM EDT
Civil Twilight 6:05 AM EDT 7:57 PM EDT
Nautical Twilight 5:31 AM EDT 8:30 PM EDT
Astronomical Twilight 4:57 AM EDT 9:05 PM EDT
Moon 4:17 AM EDT (4/6) 3:53 PM EDT (4/6)
Length of Visible Light 13h 52m
Length of Day
12h 56m
Waning Crescent, 15% of the Moon is Illuminated
Apr 6
Waning Crescent
Apr 10
New
Apr 18
First Quarter
Apr 25
Full
May 2
Last Quarter

Hourly Weather History & Observations

Time (EDT) Temp. Windchill Dew Point Humidity Pressure Visibility Wind Dir Wind Speed Gust Speed Precip Events Conditions
12:53 AM 37.0 °F 33.3 °F 17.1 °F 44% 30.05 in 10.0 mi Variable 4.6 mph - N/A   Clear
1:53 AM 36.0 °F - 16.0 °F 44% 30.07 in 10.0 mi Calm Calm - N/A   Clear
2:53 AM 34.0 °F - 12.9 °F 42% 30.09 in 10.0 mi Calm Calm - N/A   Clear
3:53 AM 34.0 °F 27.2 °F 16.0 °F 48% 30.11 in 10.0 mi NNW 8.1 mph 18.4 mph N/A   Clear
4:53 AM 33.1 °F 30.0 °F 17.1 °F 52% 30.15 in 10.0 mi NNW 3.5 mph - N/A   Clear
5:53 AM 32.0 °F - 18.0 °F 56% 30.17 in 10.0 mi Calm Calm - N/A   Clear
6:53 AM 30.9 °F 26.2 °F 18.0 °F 59% 30.19 in 10.0 mi NNW 4.6 mph - N/A   Clear
7:53 AM 34.0 °F 26.0 °F 10.9 °F 38% 30.23 in 10.0 mi North 10.4 mph - N/A   Clear
8:53 AM 36.0 °F 27.1 °F 9.0 °F 33% 30.26 in 10.0 mi NE 13.8 mph - 0.00 in Rain Light Rain
9:53 AM 37.9 °F 30.9 °F 8.1 °F 29% 30.28 in 10.0 mi North 10.4 mph 16.1 mph 0.00 in Rain Light Rain
10:53 AM 41.0 °F 33.9 °F 8.1 °F 26% 30.30 in 10.0 mi North 12.7 mph 17.3 mph 0.00 in Rain Light Rain
11:53 AM 43.0 °F - 6.1 °F 22% 30.29 in 10.0 mi Calm Calm - 0.00 in Rain Light Rain
12:53 PM 46.0 °F 41.9 °F 7.0 °F 20% 30.28 in 10.0 mi WNW 8.1 mph 17.3 mph 0.00 in Rain Light Rain
1:53 PM 48.0 °F - 5.0 °F 17% 30.27 in 10.0 mi WSW 8.1 mph - 0.00 in Rain Light Rain
2:53 PM 48.9 °F - 6.1 °F 18% 30.26 in 10.0 mi Calm Calm - 0.00 in Rain Light Rain
3:53 PM 50.0 °F - 1.9 °F 14% 30.24 in 10.0 mi Variable 3.5 mph - 0.00 in Rain Light Rain
4:53 PM 51.1 °F - 3.0 °F 14% 30.25 in 10.0 mi Calm Calm - 0.00 in Rain Light Rain
5:53 PM 51.1 °F - 5.0 °F 15% 30.25 in 10.0 mi South 4.6 mph - 0.00 in   Clear
6:53 PM 50.0 °F - 3.9 °F 15% 30.26 in 10.0 mi South 3.5 mph - 0.00 in Rain Light Rain
7:53 PM 44.1 °F - 12.9 °F 28% 30.27 in 10.0 mi Calm Calm - 0.00 in   Clear
8:53 PM 39.9 °F - 17.1 °F 40% 30.28 in 10.0 mi Calm Calm - N/A   Clear
9:53 PM 36.0 °F - 19.0 °F 50% 30.28 in 10.0 mi Calm Calm - N/A   Clear
10:53 PM 35.1 °F - 21.9 °F 59% 30.28 in 10.0 mi Calm Calm - N/A   Clear
11:53 PM 33.1 °F - 23.0 °F 66% 30.28 in 10.0 mi Calm Calm - N/A   Clear